Showing default

SDX01, 62459

Orbit data source: Space-Track

SDX01, 62459 is a payload satellite owned by ISRO (IN) in LEO that was launched on Mon, 30 Dec 2024 UTC via a PSLV launch vehicle from the Sirharikota (SRI). Payload-class satellites include a variety of spacecraft equipped with specific instruments for various scientific and technological missions. These include communications satellites like Starlink; space stations such as the ISS; scientific satellites like the Hubble; Earth observation satellites from companies like Planet Labs, Umbra, and HawkEye 360; GPS; miniature CubeSats for education and research; and military/defense satellites.

Loading next visibility...
Identifier
62459, 2024-253A
Orbit
LEO
Country
Flag of ININ / IND
Related business
Manufacturer
ISRO
Mission
Operational Civil Technology
Bus & Motor
SPADEX, Unknown motor
Mass
220 kg wet, ~180 kg dry
Launch date (UTC)
2024-12-30 (11 months ago)
Launch vehicle
PSLV
Launch site
Sirharikota (SRI)
Object type
Payload
Rocket body
Debris
Shape & HBR
Box + 2 Pan, 1.3 m
Radar Cross Section
0.901 m², Large (>1 m²)

Expand to show TLE details & history
Last TLE update: 9 hours ago

TLE from 9 hours ago
0 SDX01
1 62459U 24253A   25346.91202317  .00029595  00000-0  53340-3 0  9995
2 62459  54.9946 132.2490 0007384  96.4916 263.6958 15.49574342 53486
Epoch: 2025-12-12T21:53Z
TLE epoch observation values (Epoch: 2025-12-12T21:53:18.801Z)
Latitude
-0.00003°
Longitude
82.0738°
Altitude
419.629 km
Speed
7.66 km/s
True Right ascension
08h 48m 59s
True Declination
0° 00' 00"
Sunlit
Object was in full shadow at epoch
Visualization orbit readout
Latitude
Unknown
Longitude
Unknown
Altitude
Unknown
Speed
Unknown
Apparent Right ascension
Unknown
Apparent Declination
Unknown
Sunlit
N/A
Visualization observer readout
Local Sidereal Time
05:22:59
Azimuth
Unknown
Elevation
Unknown
Doppler factor
Unknown
Orbital elements
Apogee altitude
422.951 km
Perigee altitude
412.915 km
Semi-major axis
6,796.07 km
Eccentricity
0.00074
Inclination
54.9946°
RAAN
132.249°
Arg. of periapsis
96.4916°
True anomaly
263.61171°
Mean anomaly
263.6958°
Eccentric anomaly
263.65375°
Mean motion
3.87397 °/min
Orbital period
92.93 mins
BSTAR
0.0005334
Loading maneuver chart data...
Computing Atmospheric mass density...
Loading historical data...
Loading historical data...
Loading historical data...
Loading historical data...
Loading historical data...
Loading historical data...
Loading historical data...
Other satellites on launch #253 in the year 2024 (2024-12-30 UTC)

Documentation

Showing up to 5 results
|